Location: Kellogg
(38.0159°N, 90.0546°W)
Time: 07:55:43
(UTC+00:00)

Altair - Pass Details

Date: 18 September 2024
Orbit: 1501 x 1682 km, 47.2° (Epoch: 07 October)

Event Time Altitude Azimuth Distance (km) Brightness Sun altitude
Rises 10:23:22 0° 279° (W) 4,887 - -16.7°
Reaches altitude 10° 10:26:40 10° 285° (WNW) 3,917 - -16.1°
Exits shadow 10:27:34 13° 287° (WNW) 3,661 9.0 -15.9°
Maximum altitude 10:36:25 50° 359° (N) 2,050 8.2 -14.2°
Drops below altitude 10° 10:46:14 10° 73° (ENE) 3,936 11.2 -12.3°
Sets 10:49:34 0° 79° (E) 4,913 12.4 -11.7°
